GSAT-19

Last updated on Aug. 4, 2020, 5:33 a.m. UTC

1 42747U 17031A   20216.85118802  .00000107  00000-0  00000-0 0  9998
2 42747   0.0202 279.2484 0007531 183.6883 204.2305  1.00271196 11644
UTC
Height (km)
Latitude
Longitude
Inclination
Orbital Period
UTC large
Height (km)
Speed (km/s)
/
Latitude / Longitude
Inclination (degrees)
Orbital Period (minutes)
Azimuth
Elevation
Range (km)
Doppler Factor
iOS Compass Heading
iOS Angle

Next 30 passes for location: Hong Kong

Rise time Rise Azimuth (degrees) Set time Set Azimuth (degrees) Duration Max altitude (degrees)

No matching passes for this satellites